Location: Winthrop
(48.4780°N, 120.1850°W)
Time: 04:38:48
(UTC-07:00)

S-56A Canister/Altair - Visible Passes

Search period start: 01 June 2023 00:00
Search period end: 11 June 2023 00:00
Orbit: 639 x 2492 km, 38.9° (Epoch: 31 May)

Date Brightness Start Highest point End Pass type
(mag) Time Alt. Az. Time Alt. Az. Time Alt. Az.
01 Jun 9.9 01:59:31 10° W 02:13:58 55° SSW 02:25:59 10° ESE visible
01 Jun 10.1 04:06:17 10° W 04:18:32 35° SW 04:28:11 10° SSE visible
01 Jun 10.4 21:18:18 10° SSW 21:29:42 34° SE 21:42:10 10° E visible
01 Jun 10.0 23:20:46 10° SW 23:34:35 54° SSE 23:48:18 10° E visible
02 Jun 9.9 01:25:49 10° W 01:40:20 57° S 01:52:57 10° ESE visible
02 Jun 10.0 03:32:17 10° W 03:45:13 39° SSW 03:55:36 10° SSE visible
02 Jun 10.0 22:47:31 10° SW 23:00:54 52° SSE 23:14:50 10° E visible
03 Jun 9.9 00:52:11 10° WSW 01:06:38 58° S 01:19:47 10° ESE visible
03 Jun 10.0 02:58:22 10° W 03:11:49 42° SSW 03:22:54 10° SE visible
03 Jun 10.1 22:14:23 10° SW 22:27:16 50° SSE 22:41:14 10° E visible
04 Jun 9.9 00:18:39 10° WSW 00:32:56 58° S 00:46:31 10° ESE visible
04 Jun 10.0 02:24:31 10° W 02:38:20 45° SSW 02:50:05 10° SE visible
04 Jun 10.1 21:41:22 10° SW 21:53:39 47° SSE 22:07:34 10° E visible
04 Jun 10.0 23:45:13 10° WSW 23:59:12 58° S 00:13:10 10° ESE visible
05 Jun 10.0 01:50:46 10° W 02:04:47 48° SSW 02:17:09 10° SE visible
05 Jun 10.4 03:58:08 10° W 04:08:49 25° SW 04:17:59 10° S visible
05 Jun 10.0 23:11:53 10° WSW 23:25:28 58° S 23:39:44 10° ESE visible
06 Jun 10.0 01:17:06 10° W 01:31:10 51° SSW 01:44:06 10° SE visible
06 Jun 10.4 03:23:59 10° W 03:35:33 29° SW 03:45:36 10° SSE visible
06 Jun 10.0 22:38:38 10° WSW 22:51:45 57° S 23:06:11 10° E visible
07 Jun 10.0 00:43:32 10° W 00:57:30 53° SSW 01:10:56 10° SE visible
07 Jun 10.3 02:49:58 10° W 03:02:12 32° SW 03:13:03 10° SSE visible
07 Jun 10.0 22:05:29 10° WSW 22:18:04 56° S 22:32:33 10° E visible
08 Jun 10.0 00:10:03 10° W 00:23:49 54° SSW 00:37:40 10° ESE visible
08 Jun 10.3 02:16:06 10° W 02:28:47 35° SW 02:40:21 10° SSE visible
08 Jun 10.0 21:32:26 10° WSW 21:44:26 54° SSE 21:58:50 10° E visible
08 Jun 10.0 23:36:40 10° W 23:50:06 56° S 00:04:19 10° ESE visible
09 Jun 10.2 01:42:20 10° W 01:55:18 38° SSW 02:07:30 10° SSE visible
09 Jun 10.8 03:51:35 10° W 03:58:45 15° SW 04:05:27 10° SSW visible
09 Jun 10.0 23:03:22 10° W 23:16:23 57° S 23:30:49 10° ESE visible
10 Jun 10.2 01:08:42 10° W 01:21:45 41° SSW 01:34:32 10° SE visible
10 Jun 10.8 03:16:53 10° W 03:25:34 18° SW 03:33:42 10° SSW visible
10 Jun 10.0 22:30:11 10° WSW 22:42:42 57° S 22:57:15 10° ESE visible
